Location: Praha
(50.0830°N, 14.4670°E)
Time: 18:59:38
(UTC+02:00)

ISS - Pass Details

Date: 27 June 2024
Orbit: 409 x 421 km, 51.6° (Epoch: 14 June)

Event Time Altitude Azimuth Distance (km) Brightness Sun altitude
Exits shadow 02:03:02 - 122° (ESE) 1,849 -0.7 -15.5°
Enters shadow 03:00:39 -69° 243° (WSW) 12,365 3.6 -12.3°
Maximum altitude 03:38:16 30° 147° (SSE) 763 -2.6 -9.2°
